Year,Month,Day,Hour,Minute,Value (Times are PST for temperature in C)
2021,06,29,00,00,26.40
2021,06,29,00,01,26.40
2021,06,29,00,02,26.40
2021,06,29,00,03,26.40
2021,06,29,00,04,26.40
2021,06,29,00,05,26.40
2021,06,29,00,06,26.40
2021,06,29,00,07,26.40
2021,06,29,00,08,26.40
2021,06,29,00,09,26.40
2021,06,29,00,10,26.40
2021,06,29,00,11,26.30
2021,06,29,00,12,26.30
2021,06,29,00,13,26.30
2021,06,29,00,14,26.20
2021,06,29,00,15,26.20
2021,06,29,00,16,26.20
2021,06,29,00,17,26.10
2021,06,29,00,18,26.10
2021,06,29,00,19,26.00
2021,06,29,00,20,25.90
2021,06,29,00,21,25.90
2021,06,29,00,22,25.80
2021,06,29,00,23,25.70
2021,06,29,00,24,25.60
2021,06,29,00,25,25.50
2021,06,29,00,26,25.40
2021,06,29,00,27,25.30
2021,06,29,00,28,25.20
2021,06,29,00,29,25.10
2021,06,29,00,30,25.00
2021,06,29,00,31,24.90
2021,06,29,00,32,24.90
2021,06,29,00,33,24.80
2021,06,29,00,34,24.70
2021,06,29,00,35,24.60
2021,06,29,00,36,24.50
2021,06,29,00,37,24.40
2021,06,29,00,38,24.30
2021,06,29,00,39,24.20
2021,06,29,00,40,24.10
2021,06,29,00,41,24.10
2021,06,29,00,42,24.10
2021,06,29,00,43,24.10
2021,06,29,00,44,24.00
2021,06,29,00,45,23.90
2021,06,29,00,46,23.90
2021,06,29,00,47,23.90
2021,06,29,00,48,23.90
2021,06,29,00,49,23.80
2021,06,29,00,50,23.80
2021,06,29,00,51,23.80
2021,06,29,00,52,23.80
2021,06,29,00,53,23.90
2021,06,29,00,54,23.90
2021,06,29,00,55,23.90
2021,06,29,00,56,23.90
2021,06,29,00,57,23.90
2021,06,29,00,58,23.90
2021,06,29,00,59,23.90
2021,06,29,01,00,23.90
2021,06,29,01,01,23.90
2021,06,29,01,02,23.90
2021,06,29,01,03,23.90
2021,06,29,01,04,24.00
2021,06,29,01,05,24.10
2021,06,29,01,06,24.10
2021,06,29,01,07,24.10
2021,06,29,01,08,24.10
2021,06,29,01,09,24.10
2021,06,29,01,10,24.10
2021,06,29,01,11,24.10
2021,06,29,01,12,24.10
2021,06,29,01,13,24.00
2021,06,29,01,14,23.90
2021,06,29,01,15,23.90
2021,06,29,01,16,23.80
2021,06,29,01,17,23.80
2021,06,29,01,18,23.70
2021,06,29,01,19,23.70
2021,06,29,01,20,23.60
2021,06,29,01,21,23.50
2021,06,29,01,22,23.40
2021,06,29,01,23,23.30
2021,06,29,01,24,23.30
2021,06,29,01,25,23.30
2021,06,29,01,26,23.30
2021,06,29,01,27,23.20
2021,06,29,01,28,23.20
2021,06,29,01,29,23.10
2021,06,29,01,30,23.10
2021,06,29,01,31,23.10
2021,06,29,01,32,23.00
2021,06,29,01,33,22.90
2021,06,29,01,34,22.90
2021,06,29,01,35,22.90
2021,06,29,01,36,22.90
2021,06,29,01,37,22.90
2021,06,29,01,38,22.90
2021,06,29,01,39,22.90
2021,06,29,01,40,22.90
2021,06,29,01,41,22.90
2021,06,29,01,42,22.90
2021,06,29,01,43,22.90
2021,06,29,01,44,22.90
2021,06,29,01,45,22.80
2021,06,29,01,46,22.80
2021,06,29,01,47,22.80
2021,06,29,01,48,22.80
2021,06,29,01,49,22.70
2021,06,29,01,50,22.70
2021,06,29,01,51,22.70
2021,06,29,01,52,22.70
2021,06,29,01,53,22.70
2021,06,29,01,54,22.70
2021,06,29,01,55,22.60
2021,06,29,01,56,22.60
2021,06,29,01,57,22.60
2021,06,29,01,58,22.60
2021,06,29,01,59,22.60
2021,06,29,02,00,22.60
2021,06,29,02,01,22.60
2021,06,29,02,02,22.60
2021,06,29,02,03,22.60
2021,06,29,02,04,22.60
2021,06,29,02,05,22.60
2021,06,29,02,06,22.60
2021,06,29,02,07,22.60
2021,06,29,02,08,22.50
2021,06,29,02,09,22.50
2021,06,29,02,10,22.50
2021,06,29,02,11,22.50
2021,06,29,02,12,22.50
2021,06,29,02,13,22.60
2021,06,29,02,14,22.60
2021,06,29,02,15,22.60
2021,06,29,02,16,22.60
2021,06,29,02,17,22.70
2021,06,29,02,18,22.70
2021,06,29,02,19,22.70
2021,06,29,02,20,22.70
2021,06,29,02,21,22.80
2021,06,29,02,22,22.80
2021,06,29,02,23,22.80
2021,06,29,02,24,22.80
2021,06,29,02,25,22.80
2021,06,29,02,26,22.80
2021,06,29,02,27,22.80
2021,06,29,02,28,22.80
2021,06,29,02,29,22.80
2021,06,29,02,30,22.70
2021,06,29,02,31,22.70
2021,06,29,02,32,22.70
2021,06,29,02,33,22.70
2021,06,29,02,34,22.70
2021,06,29,02,35,22.70
2021,06,29,02,36,22.60
2021,06,29,02,37,22.60
2021,06,29,02,38,22.60
2021,06,29,02,39,22.60
2021,06,29,02,40,22.60
2021,06,29,02,41,22.60
2021,06,29,02,42,22.60
2021,06,29,02,43,22.60
2021,06,29,02,44,22.60
2021,06,29,02,45,22.60
2021,06,29,02,46,22.60
2021,06,29,02,47,22.60
2021,06,29,02,48,22.60
2021,06,29,02,49,22.60
2021,06,29,02,50,22.50
2021,06,29,02,51,22.50
2021,06,29,02,52,22.50
2021,06,29,02,53,22.50
2021,06,29,02,54,22.50
2021,06,29,02,55,22.50
2021,06,29,02,56,22.40
2021,06,29,02,57,22.40
2021,06,29,02,58,22.40
2021,06,29,02,59,22.30
2021,06,29,03,00,22.30
2021,06,29,03,01,22.30
2021,06,29,03,02,22.30
2021,06,29,03,03,22.30
2021,06,29,03,04,22.20
2021,06,29,03,05,22.20
2021,06,29,03,06,22.20
2021,06,29,03,07,22.20
2021,06,29,03,08,22.20
2021,06,29,03,09,22.30
2021,06,29,03,10,22.30
2021,06,29,03,11,22.30
2021,06,29,03,12,22.30
2021,06,29,03,13,22.30
2021,06,29,03,14,22.40
2021,06,29,03,15,22.30
2021,06,29,03,16,22.30
2021,06,29,03,17,22.30
2021,06,29,03,18,22.30
2021,06,29,03,19,22.30
2021,06,29,03,20,22.30
2021,06,29,03,21,22.20
2021,06,29,03,22,22.20
2021,06,29,03,23,22.20
2021,06,29,03,24,22.10
2021,06,29,03,25,22.10
2021,06,29,03,26,22.00
2021,06,29,03,27,21.90
2021,06,29,03,28,21.90
2021,06,29,03,29,21.80
2021,06,29,03,30,21.70
2021,06,29,03,31,21.70
2021,06,29,03,32,21.60
2021,06,29,03,33,21.60
2021,06,29,03,34,21.60
2021,06,29,03,35,21.60
2021,06,29,03,36,21.50
2021,06,29,03,37,21.40
2021,06,29,03,38,21.40
2021,06,29,03,39,21.30
2021,06,29,03,40,21.30
2021,06,29,03,41,21.30
2021,06,29,03,42,21.30
2021,06,29,03,43,21.30
2021,06,29,03,44,21.30
2021,06,29,03,45,21.20
2021,06,29,03,46,21.20
2021,06,29,03,47,21.20
2021,06,29,03,48,21.20
2021,06,29,03,49,21.20
2021,06,29,03,50,21.20
2021,06,29,03,51,21.10
2021,06,29,03,52,21.10
2021,06,29,03,53,21.10
2021,06,29,03,54,21.10
2021,06,29,03,55,21.10
2021,06,29,03,56,21.10
2021,06,29,03,57,21.10
2021,06,29,03,58,21.10
2021,06,29,03,59,21.20
2021,06,29,04,00,21.20
2021,06,29,04,01,21.20
2021,06,29,04,02,21.20
2021,06,29,04,03,21.20
2021,06,29,04,04,21.20
2021,06,29,04,05,21.20
2021,06,29,04,06,21.20
2021,06,29,04,07,21.20
2021,06,29,04,08,21.20
2021,06,29,04,09,21.10
2021,06,29,04,10,21.10
2021,06,29,04,11,21.10
2021,06,29,04,12,21.10
2021,06,29,04,13,21.00
2021,06,29,04,14,21.00
2021,06,29,04,15,21.00
2021,06,29,04,16,21.00
2021,06,29,04,17,21.00
2021,06,29,04,18,20.90
2021,06,29,04,19,20.90
2021,06,29,04,20,20.90
2021,06,29,04,21,20.90
2021,06,29,04,22,20.90
2021,06,29,04,23,20.90
2021,06,29,04,24,20.90
2021,06,29,04,25,21.00
2021,06,29,04,26,21.10
2021,06,29,04,27,21.10
2021,06,29,04,28,21.10
2021,06,29,04,29,21.20
2021,06,29,04,30,21.20
2021,06,29,04,31,21.20
2021,06,29,04,32,21.20
2021,06,29,04,33,21.30
2021,06,29,04,34,21.30
2021,06,29,04,35,21.30
2021,06,29,04,36,21.30
2021,06,29,04,37,21.30
2021,06,29,04,38,21.30
2021,06,29,04,39,21.30
2021,06,29,04,40,21.30
2021,06,29,04,41,21.30
2021,06,29,04,42,21.30
2021,06,29,04,43,21.30
2021,06,29,04,44,21.30
2021,06,29,04,45,21.30
2021,06,29,04,46,21.30
2021,06,29,04,47,21.30
2021,06,29,04,48,21.30
2021,06,29,04,49,21.30
2021,06,29,04,50,21.30
2021,06,29,04,51,21.30
2021,06,29,04,52,21.30
2021,06,29,04,53,21.30
2021,06,29,04,54,21.30
2021,06,29,04,55,21.30
2021,06,29,04,56,21.30
2021,06,29,04,57,21.30
2021,06,29,04,58,21.30
2021,06,29,04,59,21.30
2021,06,29,05,00,21.30
2021,06,29,05,01,21.30
2021,06,29,05,02,21.20
2021,06,29,05,03,21.20
2021,06,29,05,04,21.20
2021,06,29,05,05,21.10
2021,06,29,05,06,21.10
2021,06,29,05,07,21.10
2021,06,29,05,08,21.00
2021,06,29,05,09,21.00
2021,06,29,05,10,21.00
2021,06,29,05,11,21.00
2021,06,29,05,12,20.90
2021,06,29,05,13,20.90
2021,06,29,05,14,20.90
2021,06,29,05,15,20.80
2021,06,29,05,16,20.60
2021,06,29,05,17,20.40
2021,06,29,05,18,20.00
2021,06,29,05,19,19.70
2021,06,29,05,20,19.40
2021,06,29,05,21,19.10
2021,06,29,05,22,18.80
2021,06,29,05,23,18.60
2021,06,29,05,24,18.40
2021,06,29,05,25,18.20
2021,06,29,05,26,18.10
2021,06,29,05,27,18.00
2021,06,29,05,28,17.90
2021,06,29,05,29,17.80
2021,06,29,05,30,17.70
2021,06,29,05,31,17.60
2021,06,29,05,32,17.50
2021,06,29,05,33,17.40
2021,06,29,05,34,17.30
2021,06,29,05,35,17.20
2021,06,29,05,36,17.10
2021,06,29,05,37,17.00
2021,06,29,05,38,17.00
2021,06,29,05,39,16.90
2021,06,29,05,40,16.80
2021,06,29,05,41,16.80
2021,06,29,05,42,16.70
2021,06,29,05,43,16.60
2021,06,29,05,44,16.50
2021,06,29,05,45,16.40
2021,06,29,05,46,16.40
2021,06,29,05,47,16.30
2021,06,29,05,48,16.30
2021,06,29,05,49,16.20
2021,06,29,05,50,16.20
2021,06,29,05,51,16.10
2021,06,29,05,52,16.10
2021,06,29,05,53,16.10
2021,06,29,05,54,16.10
2021,06,29,05,55,16.10
2021,06,29,05,56,16.10
2021,06,29,05,57,16.10
2021,06,29,05,58,16.10
2021,06,29,05,59,16.10
2021,06,29,06,00,16.10
2021,06,29,06,01,16.00
2021,06,29,06,02,15.90
2021,06,29,06,03,15.90
2021,06,29,06,04,15.90
2021,06,29,06,05,15.90
2021,06,29,06,06,15.90
2021,06,29,06,07,16.00
2021,06,29,06,08,16.10
2021,06,29,06,09,16.10
2021,06,29,06,10,16.10
2021,06,29,06,11,16.10
2021,06,29,06,12,16.10
2021,06,29,06,13,16.10
2021,06,29,06,14,16.10
2021,06,29,06,15,16.10
2021,06,29,06,16,16.10
2021,06,29,06,17,16.10
2021,06,29,06,18,16.10
2021,06,29,06,19,16.10
2021,06,29,06,20,16.10
2021,06,29,06,21,16.10
2021,06,29,06,22,16.00
2021,06,29,06,23,15.90
2021,06,29,06,24,15.80
2021,06,29,06,25,15.70
2021,06,29,06,26,15.60
2021,06,29,06,27,15.50
2021,06,29,06,28,15.50
2021,06,29,06,29,15.30
2021,06,29,06,30,15.30
2021,06,29,06,31,15.20
2021,06,29,06,32,15.20
2021,06,29,06,33,15.10
2021,06,29,06,34,15.00
2021,06,29,06,35,15.00
2021,06,29,06,36,14.90
2021,06,29,06,37,14.80
2021,06,29,06,38,14.80
2021,06,29,06,39,14.80
2021,06,29,06,40,14.70
2021,06,29,06,41,14.70
2021,06,29,06,42,14.60
2021,06,29,06,43,14.60
2021,06,29,06,44,14.60
2021,06,29,06,45,14.60
2021,06,29,06,46,14.60
2021,06,29,06,47,14.60
2021,06,29,06,48,14.60
2021,06,29,06,49,14.60
2021,06,29,06,50,14.60
2021,06,29,06,51,14.60
2021,06,29,06,52,14.60
2021,06,29,06,53,14.60
2021,06,29,06,54,14.70
2021,06,29,06,55,14.70
2021,06,29,06,56,14.80
2021,06,29,06,57,14.80
2021,06,29,06,58,14.80
2021,06,29,06,59,14.90
2021,06,29,07,00,15.00
2021,06,29,07,01,15.10
2021,06,29,07,02,15.10
2021,06,29,07,03,15.20
2021,06,29,07,04,15.20
2021,06,29,07,05,15.30
2021,06,29,07,06,15.30
2021,06,29,07,07,15.40
2021,06,29,07,08,15.50
2021,06,29,07,09,15.60
2021,06,29,07,10,15.60
2021,06,29,07,11,15.70
2021,06,29,07,12,15.70
2021,06,29,07,13,15.70
2021,06,29,07,14,15.70
2021,06,29,07,15,15.80
2021,06,29,07,16,15.80
2021,06,29,07,17,15.80
2021,06,29,07,18,15.90
2021,06,29,07,19,16.00
2021,06,29,07,20,16.10
2021,06,29,07,21,16.20
2021,06,29,07,22,16.30
2021,06,29,07,23,16.40
2021,06,29,07,24,16.40
2021,06,29,07,25,16.50
2021,06,29,07,26,16.60
2021,06,29,07,27,16.60
2021,06,29,07,28,16.70
2021,06,29,07,29,16.70
2021,06,29,07,30,16.90
2021,06,29,07,31,16.90
2021,06,29,07,32,17.00
2021,06,29,07,33,17.10
2021,06,29,07,34,17.20
2021,06,29,07,35,17.30
2021,06,29,07,36,17.30
2021,06,29,07,37,17.30
2021,06,29,07,38,17.40
2021,06,29,07,39,17.50
2021,06,29,07,40,17.50
2021,06,29,07,41,17.60
2021,06,29,07,42,17.70
2021,06,29,07,43,17.70
2021,06,29,07,44,17.80
2021,06,29,07,45,17.90
2021,06,29,07,46,17.90
2021,06,29,07,47,18.00
2021,06,29,07,48,18.20
2021,06,29,07,49,18.20
2021,06,29,07,50,18.30
2021,06,29,07,51,18.40
2021,06,29,07,52,18.40
2021,06,29,07,53,18.50
2021,06,29,07,54,18.50
2021,06,29,07,55,18.60
2021,06,29,07,56,18.60
2021,06,29,07,57,18.70
2021,06,29,07,58,18.70
2021,06,29,07,59,18.70
2021,06,29,08,00,18.80
2021,06,29,08,01,18.80
2021,06,29,08,02,18.90
2021,06,29,08,03,18.90
2021,06,29,08,04,18.90
2021,06,29,08,05,19.10
2021,06,29,08,06,19.10
2021,06,29,08,07,19.20
2021,06,29,08,08,19.30
2021,06,29,08,09,19.40
2021,06,29,08,10,19.40
2021,06,29,08,11,19.40
2021,06,29,08,12,19.40
2021,06,29,08,13,19.40
2021,06,29,08,14,19.40
2021,06,29,08,15,19.40
2021,06,29,08,16,19.40
2021,06,29,08,17,19.40
2021,06,29,08,18,19.30
2021,06,29,08,19,19.30
2021,06,29,08,20,19.30
2021,06,29,08,21,19.20
2021,06,29,08,22,19.20
2021,06,29,08,23,19.20
2021,06,29,08,24,19.20
2021,06,29,08,25,19.30
2021,06,29,08,26,19.40
2021,06,29,08,27,19.40
2021,06,29,08,28,19.50
2021,06,29,08,29,19.60
2021,06,29,08,30,19.70
2021,06,29,08,31,19.70
2021,06,29,08,32,19.80
2021,06,29,08,33,19.90
2021,06,29,08,34,19.90
2021,06,29,08,35,20.00
2021,06,29,08,36,20.10
2021,06,29,08,37,20.20
2021,06,29,08,38,20.20
2021,06,29,08,39,20.30
2021,06,29,08,40,20.30
2021,06,29,08,41,20.30
2021,06,29,08,42,20.40
2021,06,29,08,43,20.40
2021,06,29,08,44,20.40
2021,06,29,08,45,20.40
2021,06,29,08,46,20.40
2021,06,29,08,47,20.40
2021,06,29,08,48,20.40
2021,06,29,08,49,20.20
2021,06,29,08,50,20.20
2021,06,29,08,51,20.20
2021,06,29,08,52,20.10
2021,06,29,08,53,19.90
2021,06,29,08,54,19.80
2021,06,29,08,55,19.70
2021,06,29,08,56,19.60
2021,06,29,08,57,19.50
2021,06,29,08,58,19.30
2021,06,29,08,59,19.00
2021,06,29,09,00,18.90
2021,06,29,09,01,18.60
2021,06,29,09,02,18.40
2021,06,29,09,03,18.20
2021,06,29,09,04,18.00
2021,06,29,09,05,17.90
2021,06,29,09,06,17.90
2021,06,29,09,07,17.90
2021,06,29,09,08,17.90
2021,06,29,09,09,18.00
2021,06,29,09,10,18.10
2021,06,29,09,11,18.20
2021,06,29,09,12,18.20
2021,06,29,09,13,18.40
2021,06,29,09,14,18.50
2021,06,29,09,15,18.60
2021,06,29,09,16,18.70
2021,06,29,09,17,18.80
2021,06,29,09,18,18.90
2021,06,29,09,19,19.00
2021,06,29,09,20,19.10
2021,06,29,09,21,19.30
2021,06,29,09,22,19.40
2021,06,29,09,23,19.40
2021,06,29,09,24,19.40
2021,06,29,09,25,19.40
2021,06,29,09,26,19.40
2021,06,29,09,27,19.50
2021,06,29,09,28,19.50
2021,06,29,09,29,19.60
2021,06,29,09,30,19.60
2021,06,29,09,31,19.70
2021,06,29,09,32,19.80
2021,06,29,09,33,19.90
2021,06,29,09,34,19.90
2021,06,29,09,35,20.10
2021,06,29,09,36,20.20
2021,06,29,09,37,20.40
2021,06,29,09,38,20.50
2021,06,29,09,39,20.80
2021,06,29,09,40,21.00
2021,06,29,09,41,21.10
2021,06,29,09,42,21.30
2021,06,29,09,43,21.50
2021,06,29,09,44,21.60
2021,06,29,09,45,21.70
2021,06,29,09,46,21.90
2021,06,29,09,47,22.00
2021,06,29,09,48,22.00
2021,06,29,09,49,22.00
2021,06,29,09,50,22.10
2021,06,29,09,51,22.20
2021,06,29,09,52,22.20
2021,06,29,09,53,22.20
2021,06,29,09,54,22.20
2021,06,29,09,55,22.20
2021,06,29,09,56,22.20
2021,06,29,09,57,22.00
2021,06,29,09,58,21.90
2021,06,29,09,59,21.80
2021,06,29,10,00,21.60
2021,06,29,10,01,21.40
2021,06,29,10,02,21.20
2021,06,29,10,03,21.00
2021,06,29,10,04,20.80
2021,06,29,10,05,20.50
2021,06,29,10,06,20.30
2021,06,29,10,07,20.00
2021,06,29,10,08,19.80
2021,06,29,10,09,19.60
2021,06,29,10,10,19.50
2021,06,29,10,11,19.50
2021,06,29,10,12,19.60
2021,06,29,10,13,19.60
2021,06,29,10,14,19.70
2021,06,29,10,15,19.80
2021,06,29,10,16,19.90
2021,06,29,10,17,19.90
2021,06,29,10,18,20.10
2021,06,29,10,19,20.10
2021,06,29,10,20,20.30
2021,06,29,10,21,20.50
2021,06,29,10,22,20.60
2021,06,29,10,23,20.80
2021,06,29,10,24,20.90
2021,06,29,10,25,21.10
2021,06,29,10,26,21.30
2021,06,29,10,27,21.40
2021,06,29,10,28,21.60
2021,06,29,10,29,21.80
2021,06,29,10,30,21.90
2021,06,29,10,31,22.00
2021,06,29,10,32,22.00
2021,06,29,10,33,22.00
2021,06,29,10,34,22.00
2021,06,29,10,35,22.00
2021,06,29,10,36,22.00
2021,06,29,10,37,22.10
2021,06,29,10,38,22.10
2021,06,29,10,39,22.20
2021,06,29,10,40,22.30
2021,06,29,10,41,22.30
2021,06,29,10,42,22.50
2021,06,29,10,43,22.60
2021,06,29,10,44,22.70
2021,06,29,10,45,22.90
2021,06,29,10,46,23.10
2021,06,29,10,47,23.30
2021,06,29,10,48,23.50
2021,06,29,10,49,23.70
2021,06,29,10,50,23.90
2021,06,29,10,51,23.90
2021,06,29,10,52,23.90
2021,06,29,10,53,23.80
2021,06,29,10,54,23.70
2021,06,29,10,55,23.60
2021,06,29,10,56,23.60
2021,06,29,10,57,23.50
2021,06,29,10,58,23.40
2021,06,29,10,59,23.20
2021,06,29,11,00,23.10
2021,06,29,11,01,22.90
2021,06,29,11,02,22.80
2021,06,29,11,03,22.70
2021,06,29,11,04,22.80
2021,06,29,11,05,22.80
2021,06,29,11,06,22.80
2021,06,29,11,07,22.90
2021,06,29,11,08,22.90
2021,06,29,11,09,23.00
2021,06,29,11,10,23.00
2021,06,29,11,11,22.90
2021,06,29,11,12,23.10
2021,06,29,11,13,23.10
2021,06,29,11,14,23.20
2021,06,29,11,15,23.30
2021,06,29,11,16,23.50
2021,06,29,11,17,23.60
2021,06,29,11,18,23.70
2021,06,29,11,19,23.70
2021,06,29,11,20,23.90
2021,06,29,11,21,24.00
2021,06,29,11,22,23.90
2021,06,29,11,23,24.00
2021,06,29,11,24,24.10
2021,06,29,11,25,24.20
2021,06,29,11,26,24.30
2021,06,29,11,27,24.30
2021,06,29,11,28,24.40
2021,06,29,11,29,24.40
2021,06,29,11,30,24.40
2021,06,29,11,31,24.60
2021,06,29,11,32,24.70
2021,06,29,11,33,24.90
2021,06,29,11,34,25.00
2021,06,29,11,35,25.10
2021,06,29,11,36,25.30
2021,06,29,11,37,25.30
2021,06,29,11,38,25.30
2021,06,29,11,39,25.30
2021,06,29,11,40,25.40
2021,06,29,11,41,25.30
2021,06,29,11,42,25.00
2021,06,29,11,43,24.90
2021,06,29,11,44,24.80
2021,06,29,11,45,24.70
2021,06,29,11,46,24.60
2021,06,29,11,47,24.70
2021,06,29,11,48,24.80
2021,06,29,11,49,24.80
2021,06,29,11,50,24.90
2021,06,29,11,51,24.90
2021,06,29,11,52,25.00
2021,06,29,11,53,25.10
2021,06,29,11,54,25.20
2021,06,29,11,55,25.10
2021,06,29,11,56,25.10
2021,06,29,11,57,24.90
2021,06,29,11,58,24.90
2021,06,29,11,59,24.90
2021,06,29,12,00,25.10
2021,06,29,12,01,25.30
2021,06,29,12,02,25.30
2021,06,29,12,03,25.30
2021,06,29,12,04,25.40
2021,06,29,12,05,25.50
2021,06,29,12,06,25.60
2021,06,29,12,07,25.80
2021,06,29,12,08,26.00
2021,06,29,12,09,26.20
2021,06,29,12,10,26.30
2021,06,29,12,11,26.30
2021,06,29,12,12,26.20
2021,06,29,12,13,26.10
2021,06,29,12,14,26.10
2021,06,29,12,15,26.10
2021,06,29,12,16,26.20
2021,06,29,12,17,26.20
2021,06,29,12,18,26.30
2021,06,29,12,19,26.30
2021,06,29,12,20,26.40
2021,06,29,12,21,26.50
2021,06,29,12,22,26.60
2021,06,29,12,23,26.50
2021,06,29,12,24,26.40
2021,06,29,12,25,26.30
2021,06,29,12,26,26.30
2021,06,29,12,27,26.20
2021,06,29,12,28,26.20
2021,06,29,12,29,26.10
2021,06,29,12,30,26.00
2021,06,29,12,31,25.90
2021,06,29,12,32,25.90
2021,06,29,12,33,25.80
2021,06,29,12,34,25.70
2021,06,29,12,35,25.70
2021,06,29,12,36,25.70
2021,06,29,12,37,25.80
2021,06,29,12,38,25.90
2021,06,29,12,39,26.00
2021,06,29,12,40,26.00
2021,06,29,12,41,26.10
2021,06,29,12,42,26.20
2021,06,29,12,43,26.20
2021,06,29,12,44,26.30
2021,06,29,12,45,26.40
2021,06,29,12,46,26.50
2021,06,29,12,47,26.60
2021,06,29,12,48,26.70
2021,06,29,12,49,26.80
2021,06,29,12,50,26.80
2021,06,29,12,51,26.90
2021,06,29,12,52,26.90
2021,06,29,12,53,26.90
2021,06,29,12,54,26.90
2021,06,29,12,55,26.90
2021,06,29,12,56,27.10
2021,06,29,12,57,27.20
2021,06,29,12,58,27.40
2021,06,29,12,59,27.50
2021,06,29,13,00,27.70
2021,06,29,13,01,27.70
2021,06,29,13,02,27.80
2021,06,29,13,03,27.80
2021,06,29,13,04,27.80
2021,06,29,13,05,27.90
2021,06,29,13,06,27.80
2021,06,29,13,07,27.50
2021,06,29,13,08,27.40
2021,06,29,13,09,27.30
2021,06,29,13,10,27.30
2021,06,29,13,11,27.30
2021,06,29,13,12,27.30
2021,06,29,13,13,27.30
2021,06,29,13,14,27.40
2021,06,29,13,15,27.40
2021,06,29,13,16,27.40
2021,06,29,13,17,27.60
2021,06,29,13,18,27.70
2021,06,29,13,19,27.70
2021,06,29,13,20,27.70
2021,06,29,13,21,27.60
2021,06,29,13,22,27.60
2021,06,29,13,23,27.70
2021,06,29,13,24,27.90
2021,06,29,13,25,28.10
2021,06,29,13,26,28.30
2021,06,29,13,27,28.40
2021,06,29,13,28,28.40
2021,06,29,13,29,28.40
2021,06,29,13,30,28.50
2021,06,29,13,31,28.60
2021,06,29,13,32,28.60
2021,06,29,13,33,28.70
2021,06,29,13,34,28.70
2021,06,29,13,35,28.80
2021,06,29,13,36,28.80
2021,06,29,13,37,28.80
2021,06,29,13,38,28.90
2021,06,29,13,39,29.00
2021,06,29,13,40,29.10
2021,06,29,13,41,29.10
2021,06,29,13,42,29.10
2021,06,29,13,43,29.10
2021,06,29,13,44,29.10
2021,06,29,13,45,29.10
2021,06,29,13,46,29.10
2021,06,29,13,47,29.00
2021,06,29,13,48,29.00
2021,06,29,13,49,29.10
2021,06,29,13,50,29.00
2021,06,29,13,51,29.00
2021,06,29,13,52,29.20
2021,06,29,13,53,29.20
2021,06,29,13,54,29.30
2021,06,29,13,55,29.40
2021,06,29,13,56,29.40
2021,06,29,13,57,29.30
2021,06,29,13,58,29.30
2021,06,29,13,59,29.20
2021,06,29,14,00,29.20
2021,06,29,14,01,28.90
2021,06,29,14,02,28.90
2021,06,29,14,03,28.90
2021,06,29,14,04,29.00
2021,06,29,14,05,29.10
2021,06,29,14,06,29.20
2021,06,29,14,07,29.30
2021,06,29,14,08,29.40
2021,06,29,14,09,29.30
2021,06,29,14,10,29.30
2021,06,29,14,11,29.40
2021,06,29,14,12,29.40
2021,06,29,14,13,29.40
2021,06,29,14,14,29.50
2021,06,29,14,15,29.50
2021,06,29,14,16,29.40
2021,06,29,14,17,29.40
2021,06,29,14,18,29.40
2021,06,29,14,19,29.40
2021,06,29,14,20,29.40
2021,06,29,14,21,29.40
2021,06,29,14,22,29.40
2021,06,29,14,23,29.40
2021,06,29,14,24,29.50
2021,06,29,14,25,29.60
2021,06,29,14,26,29.70
2021,06,29,14,27,29.80
2021,06,29,14,28,29.70
2021,06,29,14,29,29.70
2021,06,29,14,30,29.60
2021,06,29,14,31,29.60
2021,06,29,14,32,29.60
2021,06,29,14,33,29.50
2021,06,29,14,34,29.50
2021,06,29,14,35,29.60
2021,06,29,14,36,29.60
2021,06,29,14,37,29.60
2021,06,29,14,38,29.50
2021,06,29,14,39,29.40
2021,06,29,14,40,29.30
2021,06,29,14,41,29.20
2021,06,29,14,42,29.10
2021,06,29,14,43,29.10
2021,06,29,14,44,29.10
2021,06,29,14,45,29.00
2021,06,29,14,46,29.10
2021,06,29,14,47,29.10
2021,06,29,14,48,29.10
2021,06,29,14,49,29.20
2021,06,29,14,50,29.20
2021,06,29,14,51,29.30
2021,06,29,14,52,29.30
2021,06,29,14,53,29.30
2021,06,29,14,54,29.30
2021,06,29,14,55,29.30
2021,06,29,14,56,29.30
2021,06,29,14,57,29.30
2021,06,29,14,58,29.30
2021,06,29,14,59,29.20
2021,06,29,15,00,29.20
2021,06,29,15,01,29.20
2021,06,29,15,02,29.30
2021,06,29,15,03,29.30
2021,06,29,15,04,29.40
2021,06,29,15,05,29.50
2021,06,29,15,06,29.60
2021,06,29,15,07,29.50
2021,06,29,15,08,29.40
2021,06,29,15,09,29.50
2021,06,29,15,10,29.50
2021,06,29,15,11,29.60
2021,06,29,15,12,29.70
2021,06,29,15,13,29.70
2021,06,29,15,14,29.70
2021,06,29,15,15,29.70
2021,06,29,15,16,29.60
2021,06,29,15,17,29.50
2021,06,29,15,18,29.50
2021,06,29,15,19,29.40
2021,06,29,15,20,29.30
2021,06,29,15,21,29.20
2021,06,29,15,22,29.20
2021,06,29,15,23,29.20
2021,06,29,15,24,29.30
2021,06,29,15,25,29.50
2021,06,29,15,26,29.60
2021,06,29,15,27,29.60
2021,06,29,15,28,29.60
2021,06,29,15,29,29.60
2021,06,29,15,30,29.30
2021,06,29,15,31,29.30
2021,06,29,15,32,29.30
2021,06,29,15,33,29.30
2021,06,29,15,34,29.40
2021,06,29,15,35,29.50
2021,06,29,15,36,29.40
2021,06,29,15,37,29.40
2021,06,29,15,38,29.40
2021,06,29,15,39,29.30
2021,06,29,15,40,29.30
2021,06,29,15,41,29.30
2021,06,29,15,42,29.40
2021,06,29,15,43,29.40
2021,06,29,15,44,29.40
2021,06,29,15,45,29.50
2021,06,29,15,46,29.60
2021,06,29,15,47,29.60
2021,06,29,15,48,29.60
2021,06,29,15,49,29.60
2021,06,29,15,50,29.60
2021,06,29,15,51,29.50
2021,06,29,15,52,29.40
2021,06,29,15,53,29.40
2021,06,29,15,54,29.20
2021,06,29,15,55,29.10
2021,06,29,15,56,28.90
2021,06,29,15,57,29.00
2021,06,29,15,58,29.20
2021,06,29,15,59,29.30
2021,06,29,16,00,29.30
2021,06,29,16,01,29.30
2021,06,29,16,02,29.30
2021,06,29,16,03,29.30
2021,06,29,16,04,29.30
2021,06,29,16,05,29.20
2021,06,29,16,06,29.20
2021,06,29,16,07,29.00
2021,06,29,16,08,28.90
2021,06,29,16,09,28.90
2021,06,29,16,10,28.90
2021,06,29,16,11,28.90
2021,06,29,16,12,29.00
2021,06,29,16,13,29.20
2021,06,29,16,14,29.20
2021,06,29,16,15,29.20
2021,06,29,16,16,29.10
2021,06,29,16,17,29.00
2021,06,29,16,18,28.90
2021,06,29,16,19,28.90
2021,06,29,16,20,28.90
2021,06,29,16,21,28.90
2021,06,29,16,22,29.00
2021,06,29,16,23,28.90
2021,06,29,16,24,28.90
2021,06,29,16,25,28.80
2021,06,29,16,26,28.70
2021,06,29,16,27,28.50
2021,06,29,16,28,28.40
2021,06,29,16,29,28.30
2021,06,29,16,30,28.20
2021,06,29,16,31,28.10
2021,06,29,16,32,28.00
2021,06,29,16,33,28.00
2021,06,29,16,34,28.00
2021,06,29,16,35,28.00
2021,06,29,16,36,28.00
2021,06,29,16,37,28.10
2021,06,29,16,38,28.20
2021,06,29,16,39,28.20
2021,06,29,16,40,28.10
2021,06,29,16,41,28.10
2021,06,29,16,42,28.00
2021,06,29,16,43,27.90
2021,06,29,16,44,27.80
2021,06,29,16,45,27.80
2021,06,29,16,46,27.90
2021,06,29,16,47,27.90
2021,06,29,16,48,27.90
2021,06,29,16,49,27.90
2021,06,29,16,50,27.90
2021,06,29,16,51,28.00
2021,06,29,16,52,28.00
2021,06,29,16,53,28.00
2021,06,29,16,54,27.90
2021,06,29,16,55,28.00
2021,06,29,16,56,28.00
2021,06,29,16,57,28.10
2021,06,29,16,58,28.10
2021,06,29,16,59,28.20
2021,06,29,17,00,28.30
2021,06,29,17,01,28.30
2021,06,29,17,02,28.20
2021,06,29,17,03,28.20
2021,06,29,17,04,28.20
2021,06,29,17,05,28.20
2021,06,29,17,06,28.20
2021,06,29,17,07,28.30
2021,06,29,17,08,28.40
2021,06,29,17,09,28.50
2021,06,29,17,10,28.60
2021,06,29,17,11,28.60
2021,06,29,17,12,28.60
2021,06,29,17,13,28.60
2021,06,29,17,14,28.60
2021,06,29,17,15,28.60
2021,06,29,17,16,28.70
2021,06,29,17,17,28.80
2021,06,29,17,18,28.90
2021,06,29,17,19,28.90